User: anonymous   Login
Location: Unspecified
(0.0000°N, 0.0000°E)
Time: 01:08:56
(UTC+00:00)
Language:

NOSS 2-3 (D) - Orbit

View from above orbital plane
View from above orbital plane
View from above satellite
View from above satellite

Ground track
Ground track

The orbit data is extracted from the following two-line orbital elements,

1 23862U 96029D   17273.75241201 0.00000050  00000-0  29468-4 0    00
2 23862  63.3744 142.9300 0613000  13.9184 346.0816 13.40822724    06
Epoch (UTC): 30 September 2017 18:03:28
Eccentricity: 0.0613000
inclination: 63.3744°
perigee height: 647 km
apogee height: 1565 km
right ascension of ascending node: 142.9300°
argument of perigee: 13.9184°
revolutions per day: 13.40822724
mean anomaly at epoch: 346.0816°
orbit number at epoch: 0

The dashed part of the orbit path shows where the satellite is in the earth's shadow,  

DLR